星链-3316 (STARLINK-3316 )

导读 | 豆包AI

STARLINK-3316是美国太空探索技术公司(SpaceX)星链星座的一员,于2022年1月6日发射入轨,属于星链星座低轨卫星组网阶段的任务。它主要为全球提供高速互联网服务,尤其覆盖偏远地区等网络基础设施匮乏区域,是星链大规模部署中推进全球互联布局的一颗低轨通信卫星。

Basic Information
目录编号:
50833
目录名称:
STARLINK-3316
国际标识:
2022-001AG
轨道中心:
EARTH
卫星名称:
星链-3316
卫星全名:
星链-3316 (STARLINK-3316 )
卫星状态:
已陨落 最后检测时间 2024-09-29
发射日期:
2022-01-06 UTC
国别 :
美国 (US)
星等 :
--
Orbit Information
数据来源 国际轨道数据
星历时间: 2024-09-27T16:28:16+0800
轨道信息已过期533天
半长轴: 6628.599km
偏心率: 0.0013247
轨道倾角: 53.181°
近地点辐角 15.238°
升交点赤经 303.309°
平近点角 67.452°
近地点: 241.683km
远地点: 259.245km
周期: 89.514分钟
每日圈数: 16.086818
Detailed Information
固有亮度:
5
最大亮度:
2.5
卫星平台:
Starlink v1.5
覆盖范围:
全球
运营商:
太空探索技术公司
运营商所在国:
美国
制造商(研发单位):
太空探索技术公司
制造商所在国:
美国
使用方式:
暂无
Satellite Introduction
星链(Starlink)计划是由太空探索技术公司(SpaceX)提出的一个巨型低轨卫星互联网星座项目,计划在2019年至2024年间在太空搭建由约1.2万颗卫星组成的“星链”网络,其中1584颗将部署在地球上空550千米处的近地轨道,并从2020年开始工作。该卫星仍在工作。